QPF
0.03 0.05 0.05 0.05 0.04 0.05 0.06 0.03 0.02 0.02 0.02 0.01 0.02 0.03 0.02 0.02 0.02 0.03 0.02 0.04 0.05 0.05 0.06 0.09 0.10 0.09 0.10 0.09 0.08 0.07 0.07 0.06 0.05 0.04 0.04 0.04 0.04 0.03 0.04 0.04 0.04 0.02 0.03
0.03 0.04 0.05 0.05 0.03 0.04 0.05 0.03 0.03 0.04 0.03 0.03 0.03 0.04 0.03 0.02 0.02 0.02 0.02 0.03 0.05 0.07 0.10 0.13 0.11 0.11 0.13 0.15 0.14 0.10 0.09 0.09 0.08 0.07 0.06 0.05 0.04 0.04 0.05 0.05 0.06 0.05 0.05
0.04 0.04 0.05 0.04 0.02 0.03 0.05 0.05 0.05 0.04 0.05 0.04 0.04 0.03 0.02 0.02 0.03 0.02 0.02 0.02 0.03 0.05 0.07 0.10 0.10 0.09 0.10 0.12 0.12 0.13 0.12 0.12 0.11 0.10 0.10 0.08 0.06 0.05 0.06 0.06 0.07 0.07 0.06
0.06 0.05 0.04 0.05 0.04 0.05 0.05 0.03 0.03 0.03 0.03 0.03 0.04 0.03 0.02 0.02 0.02 0.02 0.02 0.02 0.03 0.03 0.06 0.11 0.11 0.11 0.12 0.12 0.13 0.13 0.12 0.11 0.10 0.09 0.08 0.08 0.06 0.06 0.06 0.07 0.07 0.07 0.07
0.08 0.09 0.08 0.07 0.05 0.05 0.04 0.02 0.03 0.03 0.04 0.04 0.03 0.03 0.02 0.02 0.01 0.01 0.02 0.03 0.03 0.03 0.04 0.05 0.08 0.10 0.12 0.14 0.12 0.13 0.14 0.13 0.11 0.11 0.11 0.10 0.09 0.08 0.07 0.06 0.06 0.07 0.07
0.08 0.09 0.06 0.07 0.06 0.04 0.03 0.02 0.02 0.01 0.02 0.02 0.02 0.03 0.02 0.02 0.02 0.02 0.02 0.01 0.02 0.03 0.03 0.03 0.04 0.08 0.12 0.11 0.12 0.14 0.17 0.17 0.14 0.12 0.12 0.11 0.10 0.09 0.07 0.08 0.08 0.07 0.07
0.05 0.04 0.03 0.04 0.04 0.03 0.02 0.01 0.01 0.03 0.03 0.01 0.01 0.01 0.01 0.02 0.02 0.02 0.02 0.02 0.01 0.02 0.03 0.05 0.05 0.05 0.06 0.05 0.08 0.11 0.14 0.15 0.16 0.15 0.13 0.12 0.13 0.13 0.12 0.11 0.11 0.10 0.10
0.02 0.01 0.01 0.02 0.02 0.03 0.03 0.02 0.02 0.02 0.03 0.02 0.01 0.01 0.02 0.02 0.01 0.02 0.02 0.01 0.01 0.01 0.02 0.03 0.03 0.04 0.04 0.03 0.05 0.07 0.11 0.15 0.21 0.24 0.23 0.18 0.15 0.13 0.11 0.11 0.10 0.09 0.09
0.02 0.02 0.02 0.01 0.01 0.01 0.02 0.03 0.03 0.03 0.02 0.02 0.02 0.02 0.01 0.01 0.02 0.02 0.01 0.01 0.01 0.01 0.02 0.03 0.03 0.03 0.04 0.05 0.04 0.05 0.07 0.09 0.14 0.22 0.27 0.26 0.22 0.17 0.12 0.10 0.09 0.07 0.07
0.03 0.03 0.03 0.02 0.02 0.02 0.02 0.02 0.02 0.03 0.03 0.02 0.02 0.02 0.01 0.01 0.01 0.01 0.01 0.01 0.00 0.00 0.01 0.02 0.02 0.02 0.04 0.05 0.05 0.05 0.04 0.04 0.06 0.10 0.17 0.25 0.27 0.21 0.14 0.10 0.09 0.08 0.08
0.04 0.04 0.03 0.03 0.04 0.03 0.03 0.03 0.02 0.03 0.03 0.03 0.02 0.02 0.02 0.02 0.01 0.02 0.01 0.00 0.00 0.00 0.00 0.01 0.01 0.03 0.04 0.05 0.07 0.08 0.07 0.05 0.04 0.06 0.09 0.15 0.21 0.22 0.16 0.10 0.10 0.12 0.12
0.05 0.04 0.04 0.05 0.04 0.04 0.04 0.04 0.03 0.03 0.04 0.03 0.03 0.03 0.04 0.04 0.03 0.03 0.02 0.01 0.01 0.01 0.01 0.01 0.01 0.02 0.02 0.04 0.06 0.09 0.08 0.05 0.03 0.04 0.05 0.08 0.13 0.18 0.16 0.12 0.14 0.15 0.16
0.06 0.05 0.05 0.05 0.05 0.07 0.07 0.06 0.05 0.04 0.04 0.04 0.04 0.04 0.04 0.04 0.04 0.04 0.05 0.03 0.01 0.01 0.01 0.01 0.02 0.02 0.01 0.02 0.04 0.05 0.05 0.03 0.03 0.03 0.04 0.04 0.07 0.12 0.15 0.14 0.15 0.14 0.14
0.05 0.06 0.07 0.07 0.08 0.08 0.07 0.07 0.06 0.06 0.05 0.04 0.04 0.03 0.03 0.03 0.05 0.05 0.05 0.05 0.02 0.01 0.01 0.01 0.01 0.01 0.01 0.03 0.04 0.03 0.03 0.03 0.03 0.04 0.06 0.06 0.07 0.08 0.11 0.13 0.11 0.10 0.11
0.03 0.05 0.07 0.08 0.09 0.08 0.07 0.07 0.07 0.06 0.06 0.05 0.04 0.04 0.03 0.03 0.04 0.05 0.05 0.05 0.03 0.02 0.01 0.01 0.01 0.01 0.01 0.02 0.02 0.02 0.02 0.03 0.04 0.03 0.04 0.06 0.06 0.05 0.07 0.10 0.10 0.09 0.12
0.02 0.04 0.08 0.08 0.08 0.07 0.07 0.08 0.07 0.06 0.07 0.06 0.05 0.05 0.05 0.04 0.05 0.04 0.05 0.05 0.03 0.02 0.02 0.02 0.03 0.03 0.02 0.02 0.01 0.01 0.01 0.02 0.03 0.02 0.02 0.02 0.03 0.03 0.04 0.05 0.07 0.10 0.11
0.02 0.04 0.08 0.07 0.06 0.06 0.07 0.08 0.08 0.08 0.08 0.06 0.05 0.05 0.05 0.06 0.06 0.05 0.05 0.05 0.04 0.03 0.02 0.02 0.02 0.02 0.01 0.01 0.01 0.01 0.01 0.02 0.02 0.02 0.02 0.02 0.01 0.02 0.03 0.04 0.06 0.10 0.10
0.02 0.05 0.07 0.06 0.05 0.04 0.05 0.05 0.06 0.07 0.07 0.05 0.05 0.05 0.05 0.07 0.07 0.06 0.06 0.06 0.06 0.05 0.03 0.02 0.02 0.02 0.01 0.02 0.02 0.01 0.01 0.01 0.02 0.02 0.02 0.02 0.01 0.01 0.02 0.02 0.05 0.09 0.08
0.03 0.05 0.06 0.05 0.05 0.05 0.05 0.05 0.06 0.08 0.07 0.05 0.05 0.05 0.06 0.06 0.05 0.05 0.07 0.07 0.08 0.07 0.04 0.03 0.01 0.01 0.01 0.03 0.02 0.02 0.02 0.02 0.02 0.02 0.02 0.02 0.01 0.01 0.01 0.01 0.03 0.06 0.07
0.02 0.03 0.04 0.04 0.05 0.06 0.05 0.05 0.06 0.07 0.06 0.05 0.05 0.05 0.04 0.04 0.03 0.04 0.04 0.05 0.06 0.06 0.05 0.04 0.02 0.02 0.02 0.02 0.02 0.02 0.02 0.02 0.02 0.02 0.03 0.02 0.02 0.01 0.01 0.01 0.02 0.04 0.05
0.02 0.03 0.03 0.04 0.05 0.05 0.04 0.03 0.04 0.04 0.04 0.04 0.03 0.03 0.04 0.04 0.04 0.04 0.04 0.04 0.05 0.05 0.05 0.05 0.05 0.04 0.03 0.03 0.03 0.03 0.03 0.03 0.03 0.02 0.02 0.01 0.01 0.01 0.01 0.01 0.03 0.04 0.04
0.03 0.03 0.04 0.04 0.03 0.03 0.03 0.03 0.04 0.04 0.04 0.03 0.02 0.03 0.03 0.04 0.04 0.04 0.04 0.03 0.04 0.04 0.05 0.05 0.04 0.04 0.04 0.05 0.05 0.04 0.04 0.04 0.04 0.03 0.03 0.02 0.01 0.00 0.00 0.01 0.02 0.05 0.05
0.05 0.04 0.03 0.03 0.03 0.03 0.04 0.04 0.04 0.04 0.03 0.02 0.03 0.03 0.03 0.03 0.03 0.02 0.02 0.03 0.04 0.05 0.06 0.05 0.05 0.04 0.04 0.03 0.03 0.02 0.02 0.02 0.02 0.02 0.02 0.01 0.01 0.01 0.01 0.01 0.01 0.02 0.04
0.05 0.04 0.05 0.05 0.05 0.06 0.07 0.07 0.07 0.05 0.03 0.03 0.03 0.03 0.04 0.03 0.02 0.01 0.01 0.01 0.02 0.03 0.04 0.03 0.03 0.04 0.04 0.04 0.03 0.03 0.03 0.03 0.03 0.03 0.03 0.02 0.02 0.02 0.02 0.01 0.02 0.02 0.02
0.07 0.07 0.06 0.06 0.07 0.09 0.09 0.08 0.07 0.05 0.05 0.04 0.04 0.04 0.05 0.05 0.04 0.02 0.01 0.01 0.01 0.02 0.02 0.02 0.02 0.02 0.02 0.03 0.04 0.04 0.03 0.03 0.03 0.03 0.03 0.02 0.02 0.01 0.01 0.02 0.02 0.03 0.02
0.06 0.06 0.07 0.07 0.08 0.08 0.08 0.07 0.07 0.06 0.05 0.05 0.05 0.06 0.06 0.05 0.03 0.02 0.01 0.01 0.01 0.01 0.01 0.01 0.01 0.02 0.02 0.02 0.03 0.04 0.03 0.03 0.03 0.02 0.02 0.02 0.02 0.02 0.01 0.01 0.02 0.03 0.03
MSLP
1015.17 1015.20 1015.16 1015.07 1014.95 1014.85 1014.79 1014.79 1014.83 1014.90 1014.97 1015.01 1015.02 1014.99 1014.95 1014.91 1014.92 1014.98 1015.12 1015.33 1015.59 1015.87 1016.15 1016.40 1016.62 1016.80 1016.96 1017.12 1017.28 1017.47 1017.68 1017.93 1018.19 1018.47 1018.74 1019.00 1019.23 1019.45 1019.65 1019.83 1020.00 1020.16 1020.33
1015.11 1015.13 1015.07 1014.96 1014.83 1014.71 1014.63 1014.61 1014.63 1014.69 1014.76 1014.80 1014.81 1014.78 1014.72 1014.67 1014.63 1014.66 1014.75 1014.92 1015.15 1015.44 1015.74 1016.04 1016.31 1016.55 1016.77 1016.95 1017.14 1017.32 1017.52 1017.75 1018.00 1018.26 1018.54 1018.82 1019.09 1019.34 1019.57 1019.78 1019.96 1020.14 1020.30
1014.87 1014.88 1014.83 1014.73 1014.60 1014.49 1014.42 1014.40 1014.42 1014.48 1014.54 1014.59 1014.60 1014.57 1014.51 1014.43 1014.37 1014.34 1014.39 1014.51 1014.71 1014.97 1015.28 1015.60 1015.92 1016.22 1016.48 1016.71 1016.92 1017.11 1017.30 1017.51 1017.75 1018.01 1018.29 1018.58 1018.87 1019.16 1019.43 1019.67 1019.88 1020.07 1020.24
1014.49 1014.50 1014.47 1014.40 1014.31 1014.24 1014.19 1014.18 1014.20 1014.26 1014.33 1014.38 1014.40 1014.37 1014.31 1014.22 1014.13 1014.07 1014.06 1014.13 1014.28 1014.51 1014.79 1015.12 1015.47 1015.80 1016.10 1016.37 1016.60 1016.81 1017.00 1017.20 1017.43 1017.68 1017.96 1018.26 1018.58 1018.90 1019.20 1019.47 1019.72 1019.93 1020.13
1014.04 1014.05 1014.05 1014.04 1014.01 1013.98 1013.97 1013.97 1014.01 1014.06 1014.12 1014.17 1014.20 1014.19 1014.13 1014.05 1013.95 1013.86 1013.81 1013.82 1013.91 1014.09 1014.33 1014.64 1014.98 1015.32 1015.64 1015.94 1016.19 1016.41 1016.62 1016.81 1017.03 1017.28 1017.56 1017.87 1018.21 1018.55 1018.89 1019.20 1019.48 1019.73 1019.94
1013.59 1013.62 1013.66 1013.70 1013.74 1013.77 1013.79 1013.82 1013.85 1013.90 1013.95 1013.99 1014.02 1014.02 1013.99 1013.92 1013.83 1013.73 1013.65 1013.61 1013.64 1013.75 1013.94 1014.19 1014.50 1014.83 1015.15 1015.45 1015.72 1015.95 1016.16 1016.37 1016.58 1016.83 1017.11 1017.43 1017.78 1018.15 1018.51 1018.86 1019.16 1019.44 1019.67
1013.22 1013.27 1013.36 1013.46 1013.56 1013.64 1013.69 1013.73 1013.76 1013.78 1013.81 1013.84 1013.87 1013.89 1013.89 1013.85 1013.78 1013.69 1013.60 1013.53 1013.50 1013.54 1013.65 1013.84 1014.08 1014.37 1014.67 1014.96 1015.23 1015.47 1015.69 1015.90 1016.12 1016.36 1016.65 1016.97 1017.33 1017.71 1018.09 1018.45 1018.77 1019.06 1019.31
1012.98 1013.05 1013.18 1013.34 1013.49 1013.61 1013.68 1013.72 1013.72 1013.72 1013.72 1013.73 1013.76 1013.80 1013.82 1013.82 1013.79 1013.73 1013.64 1013.55 1013.48 1013.45 1013.49 1013.59 1013.77 1014.00 1014.25 1014.52 1014.78 1015.02 1015.24 1015.45 1015.68 1015.92 1016.20 1016.53 1016.88 1017.25 1017.63 1017.98 1018.31 1018.60 1018.85
1012.90 1012.98 1013.14 1013.34 1013.52 1013.67 1013.75 1013.77 1013.75 1013.70 1013.67 1013.66 1013.68 1013.73 1013.79 1013.84 1013.86 1013.83 1013.76 1013.66 1013.56 1013.47 1013.44 1013.47 1013.56 1013.72 1013.93 1014.16 1014.39 1014.62 1014.84 1015.06 1015.28 1015.53 1015.80 1016.11 1016.44 1016.79 1017.14 1017.47 1017.78 1018.05 1018.29
1012.96 1013.05 1013.22 1013.44 1013.64 1013.79 1013.86 1013.86 1013.80 1013.72 1013.65 1013.62 1013.63 1013.69 1013.78 1013.87 1013.93 1013.94 1013.90 1013.80 1013.68 1013.56 1013.46 1013.42 1013.45 1013.54 1013.69 1013.87 1014.08 1014.30 1014.51 1014.72 1014.94 1015.18 1015.44 1015.72 1016.02 1016.34 1016.64 1016.93 1017.19 1017.42 1017.63
1013.11 1013.20 1013.38 1013.59 1013.79 1013.93 1013.99 1013.96 1013.87 1013.76 1013.65 1013.59 1013.60 1013.66 1013.77 1013.89 1013.98 1014.02 1014.00 1013.91 1013.78 1013.63 1013.50 1013.40 1013.37 1013.41 1013.50 1013.65 1013.83 1014.02 1014.22 1014.43 1014.64 1014.86 1015.10 1015.35 1015.62 1015.88 1016.13 1016.36 1016.55 1016.73 1016.89
1013.33 1013.41 1013.57 1013.76 1013.94 1014.06 1014.10 1014.05 1013.93 1013.79 1013.66 1013.59 1013.58 1013.64 1013.74 1013.87 1013.98 1014.04 1014.03 1013.95 1013.81 1013.65 1013.48 1013.35 1013.28 1013.27 1013.33 1013.44 1013.59 1013.76 1013.95 1014.14 1014.34 1014.55 1014.77 1014.99 1015.21 1015.42 1015.61 1015.77 1015.91 1016.03 1016.14
1013.59 1013.64 1013.77 1013.93 1014.08 1014.17 1014.18 1014.11 1013.98 1013.83 1013.68 1013.59 1013.57 1013.61 1013.70 1013.82 1013.92 1013.98 1013.96 1013.88 1013.74 1013.56 1013.39 1013.24 1013.14 1013.10 1013.13 1013.21 1013.33 1013.48 1013.65 1013.83 1014.02 1014.21 1014.41 1014.61 1014.80 1014.97 1015.11 1015.22 1015.30 1015.36 1015.42
1013.87 1013.89 1013.98 1014.10 1014.20 1014.26 1014.25 1014.16 1014.03 1013.86 1013.72 1013.61 1013.57 1013.59 1013.66 1013.74 1013.81 1013.84 1013.81 1013.71 1013.56 1013.38 1013.20 1013.04 1012.93 1012.88 1012.88 1012.94 1013.04 1013.17 1013.33 1013.49 1013.67 1013.85 1014.04 1014.22 1014.39 1014.54 1014.65 1014.72 1014.76 1014.79 1014.81
1014.18 1014.16 1014.20 1014.27 1014.32 1014.34 1014.31 1014.22 1014.08 1013.92 1013.77 1013.66 1013.60 1013.59 1013.62 1013.65 1013.68 1013.67 1013.60 1013.48 1013.32 1013.13 1012.95 1012.79 1012.68 1012.61 1012.61 1012.65 1012.73 1012.84 1012.98 1013.13 1013.30 1013.48 1013.66 1013.85 1014.01 1014.15 1014.26 1014.32 1014.34 1014.35 1014.35
1014.53 1014.47 1014.45 1014.46 1014.47 1014.45 1014.39 1014.29 1014.15 1014.00 1013.86 1013.74 1013.66 1013.62 1013.60 1013.58 1013.55 1013.48 1013.37 1013.22 1013.04 1012.85 1012.67 1012.52 1012.41 1012.35 1012.34 1012.37 1012.43 1012.52 1012.64 1012.77 1012.93 1013.11 1013.30 1013.49 1013.67 1013.83 1013.94 1014.01 1014.05 1014.06 1014.06
1014.91 1014.80 1014.73 1014.68 1014.64 1014.58 1014.50 1014.38 1014.25 1014.11 1013.97 1013.85 1013.75 1013.67 1013.61 1013.53 1013.45 1013.33 1013.17 1012.99 1012.80 1012.60 1012.43 1012.29 1012.18 1012.13 1012.11 1012.13 1012.18 1012.25 1012.34 1012.46 1012.61 1012.78 1012.97 1013.17 1013.37 1013.55 1013.69 1013.79 1013.85 1013.89 1013.92
1015.28 1015.13 1015.01 1014.91 1014.82 1014.73 1014.62 1014.50 1014.36 1014.22 1014.08 1013.96 1013.84 1013.74 1013.63 1013.51 1013.38 1013.21 1013.02 1012.82 1012.61 1012.42 1012.26 1012.13 1012.04 1011.98 1011.97 1011.97 1012.00 1012.05 1012.12 1012.21 1012.34 1012.49 1012.68 1012.88 1013.09 1013.29 1013.46 1013.59 1013.69 1013.76 1013.83
1015.60 1015.42 1015.27 1015.13 1015.00 1014.88 1014.75 1014.61 1014.46 1014.32 1014.18 1014.05 1013.92 1013.79 1013.66 1013.50 1013.33 1013.14 1012.93 1012.71 1012.51 1012.32 1012.16 1012.05 1011.97 1011.92 1011.90 1011.90 1011.91 1011.93 1011.97 1012.02 1012.12 1012.24 1012.40 1012.59 1012.79 1012.99 1013.18 1013.34 1013.47 1013.59 1013.69
1015.82 1015.63 1015.46 1015.30 1015.15 1015.00 1014.85 1014.70 1014.54 1014.39 1014.24 1014.10 1013.96 1013.82 1013.66 1013.49 1013.30 1013.09 1012.87 1012.66 1012.45 1012.28 1012.13 1012.03 1011.96 1011.92 1011.89 1011.87 1011.86 1011.86 1011.86 1011.87 1011.92 1012.00 1012.11 1012.26 1012.43 1012.61 1012.79 1012.96 1013.12 1013.27 1013.42
1015.93 1015.74 1015.57 1015.41 1015.25 1015.10 1014.94 1014.77 1014.60 1014.43 1014.27 1014.12 1013.97 1013.81 1013.65 1013.47 1013.27 1013.06 1012.84 1012.63 1012.43 1012.26 1012.13 1012.03 1011.96 1011.92 1011.88 1011.85 1011.82 1011.78 1011.74 1011.71 1011.70 1011.72 1011.77 1011.85 1011.97 1012.10 1012.25 1012.41 1012.57 1012.74 1012.93
1015.93 1015.77 1015.62 1015.48 1015.34 1015.19 1015.02 1014.84 1014.66 1014.47 1014.30 1014.12 1013.96 1013.79 1013.62 1013.43 1013.24 1013.03 1012.81 1012.60 1012.40 1012.24 1012.10 1011.99 1011.92 1011.87 1011.82 1011.77 1011.72 1011.65 1011.57 1011.49 1011.43 1011.37 1011.35 1011.35 1011.39 1011.46 1011.55 1011.67 1011.82 1012.00 1012.21
1015.87 1015.76 1015.66 1015.57 1015.46 1015.32 1015.16 1014.97 1014.77 1014.56 1014.36 1014.16 1013.97 1013.79 1013.61 1013.42 1013.22 1013.00 1012.78 1012.56 1012.36 1012.17 1012.02 1011.89 1011.80 1011.72 1011.66 1011.59 1011.51 1011.42 1011.31 1011.19 1011.07 1010.95 1010.85 1010.77 1010.72 1010.70 1010.73 1010.79 1010.91 1011.08 1011.31
1015.84 1015.79 1015.76 1015.72 1015.66 1015.55 1015.40 1015.20 1014.98 1014.75 1014.51 1014.28 1014.07 1013.87 1013.66 1013.46 1013.24 1013.01 1012.77 1012.53 1012.29 1012.07 1011.88 1011.71 1011.58 1011.47 1011.37 1011.28 1011.19 1011.07 1010.94 1010.79 1010.63 1010.46 1010.29 1010.13 1010.00 1009.90 1009.85 1009.85 1009.92 1010.07 1010.30
1015.90 1015.93 1015.99 1016.02 1016.00 1015.92 1015.78 1015.58 1015.34 1015.07 1014.80 1014.54 1014.29 1014.05 1013.82 1013.58 1013.34 1013.08 1012.80 1012.52 1012.23 1011.95 1011.70 1011.47 1011.28 1011.13 1010.99 1010.87 1010.76 1010.63 1010.49 1010.32 1010.13 1009.92 1009.71 1009.49 1009.29 1009.11 1008.99 1008.93 1008.95 1009.06 1009.27
1016.10 1016.23 1016.36 1016.47 1016.50 1016.45 1016.32 1016.11 1015.84 1015.54 1015.23 1014.92 1014.63 1014.36 1014.09 1013.82 1013.53 1013.23 1012.90 1012.55 1012.20 1011.85 1011.52 1011.22 1010.97 1010.75 1010.57 1010.41 1010.27 1010.13 1009.98 1009.81 1009.60 1009.38 1009.13 1008.87 1008.62 1008.39 1008.20 1008.08 1008.05 1008.12 1008.29
Thickness
5767 5767 5766 5765 5764 5763 5763 5761 5760 5759 5758 5757 5756 5755 5754 5752 5751 5749 5748 5747 5745 5743 5742 5740 5739 5737 5735 5733 5732 5730 5728 5727 5725 5723 5721 5720 5719 5717 5716 5714 5714 5713 5712
5768 5766 5765 5764 5763 5763 5762 5761 5760 5758 5757 5757 5756 5755 5753 5752 5750 5749 5747 5746 5745 5743 5742 5740 5739 5737 5735 5734 5732 5730 5728 5727 5725 5723 5721 5719 5718 5716 5715 5714 5713 5712 5711
5768 5766 5765 5764 5763 5763 5762 5760 5759 5758 5756 5756 5754 5754 5753 5751 5750 5748 5747 5745 5743 5742 5741 5740 5738 5736 5734 5733 5732 5730 5729 5727 5724 5722 5721 5719 5718 5716 5715 5713 5712 5711 5709
5768 5767 5765 5764 5763 5762 5761 5760 5758 5756 5755 5754 5753 5752 5751 5750 5749 5747 5746 5744 5742 5741 5740 5739 5737 5736 5734 5733 5732 5730 5729 5727 5725 5722 5720 5719 5717 5716 5715 5713 5711 5710 5708
5768 5767 5766 5765 5764 5763 5761 5760 5758 5756 5753 5752 5751 5750 5749 5748 5747 5746 5744 5743 5741 5740 5738 5737 5736 5735 5734 5733 5731 5730 5729 5726 5724 5722 5720 5718 5717 5715 5714 5713 5711 5709 5708
5769 5767 5766 5765 5764 5762 5761 5759 5757 5755 5753 5751 5750 5747 5746 5745 5745 5744 5743 5741 5740 5738 5737 5736 5734 5733 5732 5731 5730 5729 5727 5726 5724 5722 5720 5718 5717 5715 5714 5712 5710 5708 5706
5769 5768 5766 5765 5764 5762 5760 5759 5756 5753 5750 5749 5746 5742 5742 5743 5742 5742 5740 5739 5738 5736 5735 5734 5732 5731 5730 5728 5728 5726 5725 5724 5722 5721 5719 5718 5716 5715 5713 5711 5709 5707 5705
5770 5769 5767 5765 5764 5762 5759 5757 5755 5751 5749 5748 5744 5738 5735 5736 5738 5740 5738 5736 5735 5734 5733 5732 5730 5729 5727 5726 5725 5724 5723 5722 5721 5720 5718 5717 5715 5714 5711 5710 5709 5707 5705
5770 5769 5768 5767 5764 5762 5759 5757 5755 5752 5747 5746 5745 5740 5733 5729 5731 5734 5734 5734 5733 5731 5730 5729 5727 5726 5725 5724 5722 5721 5720 5719 5719 5718 5717 5716 5714 5712 5711 5709 5708 5706 5703
5771 5770 5769 5767 5765 5762 5760 5758 5756 5753 5749 5745 5743 5742 5740 5736 5730 5727 5729 5730 5730 5728 5727 5726 5725 5724 5722 5721 5719 5718 5716 5716 5716 5715 5714 5713 5712 5710 5708 5707 5705 5704 5702
5771 5770 5769 5767 5765 5763 5760 5758 5756 5753 5750 5747 5743 5741 5738 5735 5733 5727 5724 5725 5725 5726 5725 5724 5723 5721 5720 5718 5716 5714 5713 5712 5712 5711 5711 5710 5709 5707 5705 5704 5703 5702 5700
5771 5770 5769 5767 5765 5762 5760 5758 5756 5753 5750 5748 5745 5742 5738 5735 5731 5728 5724 5722 5721 5723 5723 5722 5721 5719 5717 5716 5714 5712 5710 5709 5708 5707 5707 5706 5705 5704 5703 5701 5700 5699 5697
5770 5770 5769 5767 5764 5762 5760 5758 5755 5753 5750 5748 5745 5742 5740 5737 5734 5730 5725 5721 5720 5720 5720 5720 5719 5717 5715 5714 5712 5710 5708 5706 5705 5704 5703 5702 5701 5700 5700 5698 5697 5696 5694
5772 5771 5769 5767 5765 5763 5760 5758 5755 5752 5750 5747 5745 5743 5740 5738 5735 5732 5728 5722 5717 5715 5716 5716 5717 5716 5714 5711 5709 5707 5705 5703 5701 5700 5699 5698 5697 5696 5696 5695 5694 5692 5690
5774 5772 5770 5768 5766 5763 5760 5758 5754 5751 5749 5746 5744 5741 5739 5738 5735 5733 5729 5725 5718 5712 5711 5713 5712 5712 5710 5709 5706 5704 5701 5700 5698 5696 5695 5693 5693 5692 5691 5690 5689 5687 5686
5774 5772 5770 5768 5765 5762 5760 5756 5753 5750 5747 5744 5742 5740 5738 5736 5734 5732 5729 5725 5721 5715 5711 5711 5709 5708 5706 5705 5703 5700 5698 5696 5694 5693 5691 5689 5688 5687 5686 5685 5684 5682 5680
5773 5771 5769 5767 5764 5761 5758 5755 5752 5749 5745 5743 5741 5739 5736 5735 5732 5730 5727 5723 5720 5716 5710 5708 5706 5704 5702 5700 5698 5696 5694 5692 5690 5689 5687 5685 5684 5682 5681 5680 5678 5677 5675
5772 5770 5767 5765 5763 5760 5757 5754 5750 5748 5745 5742 5739 5737 5735 5733 5730 5727 5724 5721 5718 5715 5711 5706 5703 5700 5698 5696 5694 5691 5689 5688 5686 5685 5683 5681 5679 5677 5676 5675 5673 5672 5670
5770 5768 5765 5762 5760 5757 5754 5752 5749 5747 5744 5741 5738 5735 5732 5730 5727 5724 5722 5719 5715 5712 5709 5705 5701 5698 5694 5691 5689 5687 5685 5683 5682 5680 5678 5676 5675 5673 5671 5670 5668 5667 5665
5769 5765 5763 5761 5759 5755 5752 5750 5747 5744 5741 5738 5735 5732 5730 5727 5725 5722 5719 5716 5712 5708 5704 5701 5697 5694 5691 5687 5685 5682 5680 5678 5677 5675 5674 5672 5670 5669 5667 5666 5664 5662 5660
5766 5764 5761 5758 5756 5753 5750 5746 5744 5741 5737 5734 5731 5728 5726 5724 5722 5719 5716 5712 5709 5704 5700 5697 5693 5690 5687 5683 5681 5680 5676 5674 5672 5671 5669 5668 5666 5664 5663 5661 5660 5658 5656
5763 5760 5758 5756 5752 5750 5747 5744 5740 5736 5733 5729 5726 5724 5722 5719 5717 5714 5712 5709 5706 5701 5697 5694 5690 5687 5684 5682 5679 5676 5672 5669 5668 5667 5664 5663 5661 5660 5659 5657 5656 5655 5652
5759 5756 5754 5751 5748 5745 5742 5738 5734 5731 5728 5725 5722 5719 5716 5714 5711 5708 5706 5703 5700 5698 5696 5692 5688 5685 5682 5679 5675 5672 5669 5667 5666 5664 5659 5659 5657 5656 5656 5655 5653 5651 5649
5754 5752 5749 5746 5743 5741 5738 5734 5730 5726 5723 5720 5717 5713 5710 5707 5705 5702 5699 5697 5694 5692 5690 5688 5686 5684 5681 5677 5673 5671 5667 5663 5661 5658 5656 5654 5654 5653 5653 5651 5650 5648 5646
5750 5747 5743 5740 5737 5735 5732 5728 5724 5720 5717 5714 5712 5708 5704 5701 5698 5694 5691 5689 5687 5685 5684 5682 5681 5678 5675 5672 5668 5664 5660 5657 5656 5655 5652 5651 5650 5648 5648 5648 5646 5644 5642
5744 5741 5737 5734 5731 5729 5726 5722 5717 5715 5710 5707 5705 5702 5698 5695 5692 5688 5684 5682 5680 5679 5677 5676 5673 5671 5669 5666 5663 5660 5657 5654 5652 5651 5650 5647 5645 5643 5643 5644 5642 5640 5637